Home > Weather > Everett > Past weeks

Flag for USA Past Weather in Everett, Washington, USA — Yesterday and Last 2 Weeks

Now
81 °F

Sunny.


Feels Like: 80 °F
Forecast: 61 / 71 °F
Wind: 5 mph from North

Location: Snohomish County Airport

Current Time: Aug 26, 2016 at 8:25:25 PM

Latest Report: Aug 26, 2016 at 7:53 PM


Visibility: 10 mi

Pressure: 29.82 "Hg

Humidity: 32%

Dew Point: 48 °F

Location of EverettLocation

Past Weather in Everett — Graph

°F

Everett Temperature Yesterday

Maximum temperature yesterday: 85 °F (at 4:53 PM)
Minimum temperature yesterday: 63 °F (at 3:53 AM)
Average temperature yesterday: 73 °F

High & Low Weather Summary for the Past Weeks

 TemperatureHumidityPressure
High89 °F (Aug 19, 3:53 PM)97% (Aug 14, 5:53 AM)30.25 "Hg (Aug 14, 5:53 AM)
Low53 °F (Aug 23, 4:53 AM)22% (Aug 19, 5:53 PM)29.81 "Hg (Aug 20, 11:53 PM)
Average68 °F60%30.04 "Hg
* Reported Aug 11 6:53 PM — Aug 26 6:53 PM, Everett, Weather by CustomWeather, © 2016

Note: Actual official high and low records may vary slightly from our data, if they occured in-between our weather recording intervals... More about our weather records

Advertising

Everett Weather History for the Previous 24 Hours

Scroll right to see more
 ConditionsComfort  
Time TempWeatherWind HumidityBarometerVisibility
6:53 PM
Fri, Aug 26
85 °FSunny.5 mph27%29.82 "Hg10 mi
5:53 PM86 °FSunny.5 mph28%29.84 "Hg10 mi
4:53 PM87 °FSunny.5 mph26%29.85 "Hg10 mi
3:53 PM87 °FSunny.6 mph28%29.87 "Hg10 mi
2:53 PM85 °FSunny.5 mph30%29.89 "Hg10 mi
1:53 PM83 °FSunny.6 mph37%29.90 "Hg10 mi
12:53 PM82 °FSunny.5 mph34%29.92 "Hg10 mi
11:53 AM79 °FSunny.No wind39%29.93 "Hg10 mi
10:53 AM77 °FSunny.No wind45%29.94 "Hg10 mi
9:53 AM73 °FSunny.3 mph53%29.95 "Hg10 mi
8:53 AM72 °FSunny.5 mph52%29.96 "Hg10 mi
7:53 AM69 °FSunny.No wind57%29.96 "Hg10 mi
6:53 AM64 °FClear.No wind68%29.95 "Hg10 mi
5:53 AM66 °FClear.No wind61%29.95 "Hg10 mi
4:53 AM65 °FClear.No wind63%29.95 "Hg10 mi
3:53 AM65 °FClear.3 mph66%29.95 "Hg10 mi
2:53 AM65 °FClear.No wind61%29.96 "Hg10 mi
1:53 AM67 °FClear.3 mph55%29.96 "Hg10 mi
12:53 AM68 °FClear.3 mph53%29.97 "Hg10 mi
11:53 PM
Thu, Aug 25
70 °FClear.5 mph49%29.96 "Hg10 mi
10:53 PM73 °FClear.3 mph41%29.97 "Hg10 mi
9:53 PM73 °FClear.5 mph46%29.98 "Hg10 mi
8:53 PM72 °FSunny.6 mph46%29.98 "Hg10 mi
Weather by CustomWeather, © 2016

See weather overviewHow to use our weather pages